Stevensville, MD

2:17 PM EDT on April 28, 2017 (GMT -0400)
Stevensville

Weather History for KW29 - October, 2012

Change the Weather History Date:

Saturday, October 6, 2012

  Actual Average (KESN) Record (KESN)
Temperature  
Mean Temperature 68 °F -  
Max Temperature 78 °F 75 °F 89 °F (2013)
Min Temperature 59 °F 51 °F 33 °F (1965)
Cooling Degree Days 4    
Growing Degree Days 18 (Base 50)    
Moisture  
Dew Point 55 °F    
Average Humidity 64    
Maximum Humidity 83    
Minimum Humidity 46    
Precipitation  
Precipitation 0.00 in - - ()
Sea Level Pressure  
Sea Level Pressure 29.91 in    
Wind  
Wind Speed 9 mph (WSW)    
Max Wind Speed 20 mph    
Max Gust Speed 25 mph    
Visibility 10 miles    
Events      
Averages and records for this station are not official NWS values.
T = Trace of Precipitation, MM = Missing Value Source: NWS Daily Summary

Daily Weather History Graph

Daily Weather History Graph

Search for Another Location

Airport or City:

Trip Planner

Search our weather history database for the weather conditions in past years. The results will help you decide how hot, cold, wet, or windy it might be!

Date:

Astronomy

Oct. 06, 2012 Rise Set
Actual Time 7:06 AM EDT 6:39 PM EDT
Civil Twilight 6:39 AM EDT 7:06 PM EDT
Nautical Twilight 6:08 AM EDT 7:36 PM EDT
Astronomical Twilight 5:37 AM EDT 8:07 PM EDT
Moon 10:55 PM EDT (10/6) 12:56 PM EDT (10/6)
Length of Visible Light 12h 26m
Length of Day
11h 33m
Waning Gibbous, 65% of the Moon is Illuminated
Oct 6
Waning Gibbous
Oct 8
Last Quarter
Oct 15
New
Oct 21
First Quarter
Oct 29
Full

Hourly Weather History & Observations

Time (EDT) Temp. Dew Point Humidity Pressure Visibility Wind Dir Wind Speed Gust Speed Precip Events Conditions
12:10 AM 69.8 °F 59.0 °F 68% 29.96 in 10.0 mi South 9.2 mph - N/A   Clear
12:31 AM 69.8 °F 59.0 °F 68% 29.95 in 10.0 mi South 8.1 mph - N/A   Clear
12:53 AM 69.8 °F 59.0 °F 68% 29.95 in 10.0 mi SSW 6.9 mph - N/A   Clear
1:14 AM 69.8 °F 60.8 °F 73% 29.94 in 10.0 mi South 6.9 mph - N/A   Clear
1:35 AM 68.0 °F 60.8 °F 78% 29.94 in 10.0 mi South 8.1 mph - N/A   Clear
1:56 AM 68.0 °F 60.8 °F 78% 29.93 in 10.0 mi SSW 8.1 mph - N/A   Clear
2:18 AM 68.0 °F 60.8 °F 78% 29.93 in 10.0 mi SSW 5.8 mph - N/A   Clear
3:00 AM 68.0 °F 60.8 °F 78% 29.92 in 10.0 mi South 6.9 mph - N/A   Clear
3:22 AM 68.0 °F 60.8 °F 78% 29.91 in 10.0 mi SSW 6.9 mph - N/A   Clear
3:43 AM 68.0 °F 59.0 °F 73% 29.91 in 10.0 mi SSW 6.9 mph - N/A   Clear
4:04 AM 68.0 °F 60.8 °F 78% 29.90 in 10.0 mi South 6.9 mph - N/A   Clear
4:26 AM 68.0 °F 60.8 °F 78% 29.90 in 10.0 mi SSW 6.9 mph 16.1 mph N/A   Clear
4:47 AM 68.0 °F 60.8 °F 78% 29.90 in 10.0 mi SSW 8.1 mph - N/A   Clear
5:30 AM 66.2 °F 60.8 °F 83% 29.89 in 10.0 mi SSW 9.2 mph 16.1 mph N/A   Clear
5:51 AM 66.2 °F 60.8 °F 83% 29.89 in 10.0 mi SSW 6.9 mph - N/A   Clear
6:12 AM 66.2 °F 60.8 °F 83% 29.89 in 10.0 mi SSW 10.4 mph 16.1 mph N/A   Clear
6:34 AM 66.2 °F 60.8 °F 83% 29.89 in 10.0 mi SSW 6.9 mph - N/A   Clear
6:55 AM 66.2 °F 60.8 °F 83% 29.89 in 10.0 mi SSW 6.9 mph - N/A   Clear
7:16 AM 66.2 °F 59.0 °F 78% 29.88 in 10.0 mi SSW 8.1 mph - N/A   Clear
7:37 AM 66.2 °F 60.8 °F 83% 29.88 in 10.0 mi South 8.1 mph - N/A   Clear
7:59 AM 68.0 °F 59.0 °F 73% 29.88 in 10.0 mi SSW 10.4 mph - N/A   Clear
8:20 AM 68.0 °F 60.8 °F 78% 29.87 in 10.0 mi SSW 6.9 mph - N/A   Clear
8:41 AM 69.8 °F 60.8 °F 73% 29.87 in 10.0 mi South 9.2 mph - N/A   Clear
9:02 AM 69.8 °F 60.8 °F 73% 29.87 in 10.0 mi South 9.2 mph - N/A   Clear
9:24 AM 69.8 °F 59.0 °F 68% 29.86 in 10.0 mi South 9.2 mph - N/A   Clear
9:45 AM 71.6 °F 60.8 °F 69% 29.86 in 10.0 mi SSW 11.5 mph - N/A   Clear
10:06 AM 71.6 °F 60.8 °F 69% 29.86 in 10.0 mi South 10.4 mph 18.4 mph N/A   Clear
10:27 AM 71.6 °F 60.8 °F 69% 29.85 in 10.0 mi South 10.4 mph - N/A   Clear
10:49 AM 73.4 °F 60.8 °F 65% 29.85 in 10.0 mi SSW 11.5 mph 16.1 mph N/A   Clear
11:10 AM 73.4 °F 60.8 °F 65% 29.85 in 10.0 mi SSW 10.4 mph 16.1 mph N/A   Clear
11:31 AM 73.4 °F 60.8 °F 65% 29.85 in 10.0 mi SSW 6.9 mph - N/A   Clear
11:52 AM 73.4 °F 60.8 °F 65% 29.84 in 10.0 mi SSW 9.2 mph - N/A   Clear
12:14 PM 73.4 °F 60.8 °F 65% 29.84 in 10.0 mi SSW 4.6 mph - N/A   Clear
12:35 PM 75.2 °F 59.0 °F 57% 29.84 in 10.0 mi SSW 6.9 mph - N/A   Clear
12:56 PM 77.0 °F 59.0 °F 54% 29.84 in 10.0 mi WSW 5.8 mph - N/A   Clear
1:17 PM 78.8 °F 59.0 °F 51% 29.84 in 10.0 mi WSW 4.6 mph - N/A   Clear
1:39 PM 78.8 °F 59.0 °F 51% 29.83 in 10.0 mi WSW 4.6 mph - N/A   Clear
2:00 PM 77.0 °F 59.0 °F 54% 29.83 in 10.0 mi WSW 3.5 mph - N/A   Scattered Clouds
2:21 PM 77.0 °F 57.2 °F 50% 29.84 in 10.0 mi NW 19.6 mph 25.3 mph N/A   Mostly Cloudy
2:42 PM 73.4 °F 59.0 °F 61% 29.85 in 10.0 mi NW 15.0 mph 23.0 mph N/A   Mostly Cloudy
3:04 PM 69.8 °F 57.2 °F 64% 29.87 in 10.0 mi WNW 15.0 mph 23.0 mph N/A   Scattered Clouds
3:25 PM 69.8 °F 55.4 °F 60% 29.87 in 10.0 mi WNW 15.0 mph - N/A   Scattered Clouds
3:46 PM 68.0 °F 51.8 °F 56% 29.89 in 10.0 mi WNW 15.0 mph 24.2 mph N/A   Scattered Clouds
4:07 PM 69.8 °F 51.8 °F 53% 29.88 in 10.0 mi NW 18.4 mph 23.0 mph N/A   Clear
4:29 PM 69.8 °F 53.6 °F 56% 29.89 in 10.0 mi NW 12.7 mph 21.9 mph N/A   Clear
4:50 PM 69.8 °F 51.8 °F 53% 29.90 in 10.0 mi NW 13.8 mph 21.9 mph N/A   Clear
5:11 PM 68.0 °F 50.0 °F 52% 29.91 in 10.0 mi NW 12.7 mph 23.0 mph N/A   Scattered Clouds
5:32 PM 68.0 °F 46.4 °F 46% 29.92 in 10.0 mi NW 12.7 mph 19.6 mph N/A   Mostly Cloudy
5:54 PM 66.2 °F 46.4 °F 49% 29.92 in 10.0 mi NW 13.8 mph 18.4 mph N/A   Scattered Clouds
6:15 PM 64.4 °F 46.4 °F 52% 29.94 in 10.0 mi NW 11.5 mph 20.7 mph N/A   Scattered Clouds
6:36 PM 64.4 °F 46.4 °F 52% 29.94 in 10.0 mi NW 15.0 mph 21.9 mph N/A   Mostly Cloudy
7:19 PM 62.6 °F 44.6 °F 52% 29.96 in 10.0 mi NW 13.8 mph 18.4 mph N/A   Scattered Clouds
7:40 PM 62.6 °F 44.6 °F 52% 29.98 in 10.0 mi NW 15.0 mph 18.4 mph N/A   Mostly Cloudy
8:01 PM 60.8 °F 44.6 °F 55% 29.98 in 10.0 mi NW 15.0 mph 20.7 mph N/A   Mostly Cloudy
8:22 PM 60.8 °F 44.6 °F 55% 29.99 in 10.0 mi NW 15.0 mph 21.9 mph N/A   Scattered Clouds
8:44 PM 60.8 °F 44.6 °F 55% 30.00 in 10.0 mi NW 13.8 mph 20.7 mph N/A   Scattered Clouds
9:05 PM 60.8 °F 44.6 °F 55% 30.01 in 10.0 mi NW 11.5 mph 18.4 mph N/A   Scattered Clouds
9:26 PM 60.8 °F 42.8 °F 52% 30.03 in 10.0 mi NW 11.5 mph 17.3 mph N/A   Mostly Cloudy
9:47 PM 60.8 °F 44.6 °F 55% 30.03 in 10.0 mi NW 12.7 mph 18.4 mph N/A   Overcast
10:09 PM 59.0 °F 44.6 °F 59% 30.04 in 10.0 mi NW 9.2 mph 17.3 mph N/A   Mostly Cloudy
10:30 PM 59.0 °F 42.8 °F 55% 30.04 in 10.0 mi NNW 9.2 mph - N/A   Clear
10:51 PM 59.0 °F 42.8 °F 55% 30.04 in 10.0 mi NW 6.9 mph 16.1 mph N/A   Clear
11:13 PM 59.0 °F 42.8 °F 55% 30.04 in 10.0 mi NW 6.9 mph - N/A   Clear
11:34 PM 59.0 °F 42.8 °F 55% 30.05 in 10.0 mi NNW 8.1 mph - N/A   Clear
11:55 PM 59.0 °F 42.8 °F 55% 30.04 in 10.0 mi NW 8.1 mph - N/A   Clear